Total_Precipitation_Accumulation
0.34 0.36 0.36 0.35 0.36 0.38 0.44 0.58 0.74 0.73 0.60 0.52 0.53 0.54 0.54 0.52 0.52 0.48 0.42 0.48 0.50 0.52 0.56 0.59 0.57 0.55 0.56 0.59 0.66 0.76 0.84 0.89 0.93 0.96 1.00 1.03 1.08 1.18
0.24 0.25 0.27 0.28 0.30 0.34 0.39 0.47 0.60 0.70 0.65 0.50 0.44 0.45 0.47 0.45 0.45 0.39 0.35 0.42 0.43 0.43 0.44 0.46 0.48 0.51 0.54 0.55 0.58 0.63 0.71 0.80 0.86 0.91 0.97 1.04 1.10 1.17
0.17 0.20 0.22 0.24 0.26 0.29 0.33 0.38 0.44 0.51 0.53 0.44 0.37 0.35 0.35 0.33 0.32 0.29 0.25 0.25 0.25 0.29 0.32 0.34 0.35 0.40 0.44 0.49 0.51 0.54 0.60 0.67 0.74 0.81 0.89 0.97 1.01 1.02
0.16 0.19 0.21 0.23 0.27 0.29 0.31 0.33 0.33 0.35 0.38 0.36 0.28 0.24 0.21 0.20 0.19 0.17 0.15 0.15 0.14 0.17 0.21 0.23 0.26 0.31 0.35 0.38 0.40 0.45 0.49 0.53 0.58 0.62 0.67 0.72 0.79 0.87
0.19 0.23 0.25 0.27 0.29 0.29 0.28 0.26 0.25 0.23 0.25 0.28 0.21 0.15 0.13 0.11 0.11 0.10 0.09 0.09 0.09 0.11 0.13 0.15 0.20 0.25 0.29 0.32 0.34 0.34 0.35 0.38 0.42 0.47 0.52 0.59 0.65 0.73
0.24 0.27 0.29 0.29 0.28 0.25 0.22 0.19 0.19 0.18 0.18 0.20 0.21 0.17 0.13 0.09 0.10 0.10 0.09 0.07 0.07 0.06 0.07 0.08 0.11 0.14 0.16 0.18 0.22 0.23 0.25 0.29 0.37 0.47 0.54 0.60 0.64 0.67
0.32 0.30 0.27 0.25 0.20 0.17 0.16 0.15 0.15 0.17 0.23 0.27 0.25 0.19 0.13 0.11 0.10 0.09 0.11 0.09 0.06 0.04 0.04 0.03 0.04 0.05 0.06 0.09 0.15 0.20 0.26 0.35 0.48 0.62 0.76 0.84 0.87 0.86
0.24 0.21 0.19 0.17 0.14 0.13 0.13 0.13 0.18 0.26 0.33 0.35 0.29 0.20 0.10 0.06 0.08 0.13 0.18 0.22 0.15 0.04 0.06 0.04 0.03 0.04 0.07 0.12 0.19 0.26 0.33 0.42 0.51 0.62 0.73 0.78 0.81 0.88
0.17 0.13 0.10 0.08 0.07 0.05 0.06 0.11 0.16 0.21 0.24 0.23 0.18 0.11 0.10 0.12 0.23 0.33 0.29 0.28 0.17 0.05 0.06 0.07 0.04 0.06 0.08 0.14 0.25 0.29 0.36 0.45 0.53 0.59 0.65 0.68 0.70 0.74
0.08 0.06 0.05 0.04 0.04 0.07 0.13 0.18 0.12 0.08 0.07 0.07 0.10 0.13 0.16 0.16 0.23 0.33 0.30 0.22 0.10 0.04 0.07 0.15 0.10 0.10 0.09 0.13 0.23 0.26 0.29 0.38 0.47 0.54 0.55 0.55 0.56 0.61
0.03 0.03 0.05 0.05 0.06 0.19 0.27 0.23 0.10 0.03 0.02 0.07 0.12 0.12 0.10 0.09 0.11 0.27 0.38 0.40 0.25 0.07 0.06 0.12 0.10 0.11 0.15 0.17 0.22 0.26 0.27 0.33 0.41 0.45 0.45 0.43 0.46 0.52
0.03 0.03 0.03 0.05 0.14 0.26 0.24 0.19 0.10 0.06 0.09 0.06 0.03 0.01 0.01 0.02 0.08 0.23 0.57 0.84 0.59 0.29 0.09 0.22 0.24 0.30 0.42 0.22 0.21 0.24 0.25 0.30 0.35 0.37 0.38 0.39 0.42 0.45
0.07 0.03 0.02 0.10 0.21 0.22 0.16 0.08 0.09 0.16 0.12 0.03 0.01 0.01 0.01 0.02 0.04 0.08 0.30 0.84 1.04 0.60 0.17 0.54 0.66 0.41 0.56 0.36 0.24 0.26 0.34 0.46 0.51 0.50 0.48 0.44 0.42 0.47
0.07 0.04 0.07 0.16 0.15 0.09 0.04 0.04 0.11 0.10 0.03 0.03 0.03 0.03 0.03 0.04 0.04 0.05 0.10 0.25 0.56 0.67 0.37 0.71 1.06 0.68 0.76 0.59 0.36 0.34 0.39 0.61 0.86 0.90 0.84 0.73 0.60 0.53
0.08 0.12 0.14 0.09 0.04 0.01 0.01 0.03 0.04 0.02 0.06 0.12 0.10 0.06 0.04 0.05 0.06 0.09 0.09 0.13 0.21 0.27 0.32 0.46 0.78 0.80 0.91 0.88 0.63 0.48 0.56 0.68 1.02 1.29 1.18 0.95 0.72 0.59
0.13 0.13 0.06 0.01 0.00 0.00 0.01 0.00 0.01 0.02 0.11 0.20 0.17 0.09 0.05 0.06 0.10 0.17 0.28 0.30 0.36 0.29 0.29 0.37 0.51 0.77 0.84 0.67 0.76 0.70 0.76 1.08 1.27 1.47 1.32 1.04 0.81 0.66
0.14 0.04 0.00 0.00 0.01 0.01 0.00 0.00 0.01 0.02 0.06 0.11 0.18 0.17 0.12 0.11 0.13 0.22 0.41 0.52 0.57 0.47 0.40 0.33 0.31 0.38 0.53 0.62 0.66 0.63 0.78 1.05 1.28 1.40 1.19 1.00 0.93 0.83
0.05 0.01 0.01 0.02 0.02 0.02 0.02 0.03 0.02 0.04 0.11 0.20 0.23 0.25 0.27 0.27 0.27 0.29 0.45 0.61 0.62 0.53 0.48 0.40 0.35 0.34 0.33 0.35 0.55 0.77 0.85 1.03 1.14 1.08 0.81 0.80 0.90 0.80
0.01 0.03 0.04 0.03 0.03 0.04 0.06 0.08 0.08 0.07 0.16 0.28 0.34 0.36 0.39 0.37 0.38 0.43 0.50 0.55 0.53 0.46 0.36 0.31 0.38 0.61 0.61 0.40 0.33 0.63 0.95 1.00 0.85 0.76 0.64 0.68 0.90 0.83
0.03 0.05 0.04 0.04 0.05 0.07 0.10 0.13 0.14 0.13 0.19 0.29 0.35 0.39 0.45 0.50 0.49 0.49 0.53 0.56 0.51 0.34 0.18 0.11 0.22 0.58 0.95 0.86 0.66 0.63 0.70 0.85 0.87 0.84 0.67 0.56 0.65 0.63
0.04 0.04 0.03 0.05 0.08 0.11 0.13 0.16 0.21 0.26 0.30 0.40 0.42 0.45 0.51 0.59 0.53 0.48 0.46 0.38 0.31 0.25 0.19 0.11 0.13 0.30 0.56 0.63 0.52 0.44 0.54 0.61 0.73 1.01 0.94 0.75 0.56 0.44
0.04 0.04 0.04 0.05 0.11 0.15 0.18 0.21 0.25 0.27 0.33 0.40 0.44 0.49 0.53 0.59 0.57 0.44 0.34 0.29 0.24 0.22 0.20 0.11 0.07 0.12 0.27 0.48 0.44 0.34 0.35 0.33 0.30 0.31 0.54 0.87 1.20 1.29
0.06 0.06 0.06 0.09 0.14 0.18 0.21 0.23 0.27 0.31 0.39 0.49 0.51 0.49 0.48 0.44 0.35 0.31 0.27 0.27 0.27 0.23 0.18 0.13 0.08 0.09 0.17 0.27 0.34 0.29 0.23 0.19 0.16 0.19 0.35 0.42 0.58 0.84